Location: Stull Observatory
(42.2506°N, 77.7903°W)
Time: 12:28:35
(UTC-04:00)

ISS - All Passes

Search period start: 20 September 2017 00:00
Search period end: 30 September 2017 00:00
Orbit: 402 x 407 km, 51.6° (Epoch: 21 September)

Date Brightness Start Highest point End Pass type
(mag) Time Alt. Az. Time Alt. Az. Time Alt. Az.
20 Sep - 01:07:57 10° WNW 01:10:24 19° NNW 01:12:53 10° NE night (unlit)
20 Sep - 02:45:31 10° NW 02:47:47 17° N 02:50:03 10° NE night (unlit)
20 Sep - 04:21:45 10° NW 04:24:54 41° NNE 04:28:03 10° E visible
20 Sep - 05:58:27 10° WNW 06:01:16 26° SW 06:04:04 10° SSE visible
20 Sep - 22:37:54 10° SW 22:41:08 69° SE 22:44:25 10° ENE night (unlit)
21 Sep - 00:15:08 10° WNW 00:17:52 24° NNW 00:20:39 10° NE night (unlit)
21 Sep - 01:53:04 10° NW 01:55:12 16° N 01:57:20 10° NE night (unlit)
21 Sep - 03:29:32 10° NW 03:32:28 28° NNE 03:35:22 10° E night (unlit)
21 Sep - 05:05:52 10° WNW 05:09:04 49° SW 05:12:16 10° SE visible
21 Sep - 21:45:53 10° SSW 21:48:55 35° SE 21:51:57 10° ENE night (unlit)
21 Sep - 23:22:22 10° W 23:25:23 33° NNW 23:28:26 10° NE night (unlit)
22 Sep - 01:00:25 10° NW 01:02:36 16° N 01:04:46 10° NE night (unlit)
22 Sep - 02:37:20 10° NW 02:39:57 21° NNE 02:42:33 10° ENE night (unlit)
22 Sep - 04:13:29 10° NW 04:16:47 86° NNE 04:20:05 10° SE visible
22 Sep - 05:51:41 10° WSW 05:52:48 11° SW 05:53:55 10° SSW visible
22 Sep - 20:54:20 10° S 20:56:44 19° SE 20:59:10 10° E visible
22 Sep - 22:29:45 10° WSW 22:32:58 53° NNW 22:36:12 10° NE night (unlit)
23 Sep - 00:07:37 10° WNW 00:09:59 18° N 00:12:22 10° NE night (unlit)
23 Sep - 01:45:02 10° NW 01:47:22 18° N 01:49:42 10° NE night (unlit)
23 Sep - 03:21:12 10° NW 03:24:25 49° NNE 03:27:38 10° ESE night (unlit)
23 Sep - 04:58:07 10° W 05:00:41 21° SW 05:03:15 10° S visible
23 Sep - 20:04:19 10° SE 20:04:38 10° SE 20:04:57 10° ESE visible
23 Sep - 21:37:19 10° SW 21:40:36 86° SE 21:43:53 10° ENE visible
23 Sep - 23:14:45 10° WNW 23:17:24 22° NNW 23:20:04 10° NE night (unlit)
24 Sep - 00:52:36 10° NW 00:54:45 16° N 00:56:54 10° NE night (unlit)
24 Sep - 02:28:58 10° NW 02:31:58 31° NNE 02:34:58 10° E night (unlit)
24 Sep - 04:05:23 10° WNW 04:08:29 39° SW 04:11:35 10° SSE night (unlit)
24 Sep - 20:45:10 10° SSW 20:48:17 44° SE 20:51:27 10° ENE visible
24 Sep - 22:21:56 10° W 22:24:52 29° NNW 22:27:48 10° NE night (unlit)
24 Sep - 23:59:58 10° NW 00:02:06 16° N 00:04:14 10° NE night (unlit)
25 Sep - 01:36:43 10° NW 01:39:26 23° NNE 01:42:09 10° ENE night (unlit)
25 Sep - 03:12:55 10° WNW 03:16:12 77° SW 03:19:29 10° SE night (unlit)
25 Sep - 19:53:23 10° S 19:56:03 23° SE 19:58:45 10° E visible
25 Sep - 21:29:13 10° WSW 21:32:23 44° NNW 21:35:33 10° NE visible
25 Sep - 23:07:10 10° NW 23:09:27 17° N 23:11:45 10° NE night (unlit)
26 Sep - 00:44:25 10° NW 00:46:51 19° NNE 00:49:15 10° ENE night (unlit)
26 Sep - 02:20:33 10° NW 02:23:49 59° NNE 02:27:04 10° ESE night (unlit)
26 Sep - 03:57:45 10° W 04:00:00 17° SW 04:02:14 10° S night (unlit)
26 Sep - 19:02:22 10° SSE 19:03:53 13° SE 19:05:26 10° ESE daylight
26 Sep - 20:36:40 10° WSW 20:39:56 77° NNW 20:43:14 10° NE visible
26 Sep - 22:14:17 10° WNW 22:16:49 20° NNW 22:19:23 10° NE visible
26 Sep - 23:51:59 10° NW 23:54:11 16° N 23:56:23 10° NE night (unlit)
27 Sep - 01:28:16 10° NW 01:31:21 36° NNE 01:34:25 10° E night (unlit)
27 Sep - 03:04:49 10° WNW 03:07:47 31° SW 03:10:44 10° SSE night (unlit)
27 Sep - 19:44:22 10° SW 19:47:35 56° SE 19:50:48 10° ENE visible
27 Sep - 21:21:24 10° W 21:24:13 26° NNW 21:27:04 10° NE visible
27 Sep - 22:59:23 10° NW 23:01:30 16° N 23:03:37 10° NE night (unlit)
28 Sep - 00:35:59 10° NW 00:38:48 25° NNE 00:41:36 10° ENE night (unlit)
28 Sep - 02:12:13 10° WNW 02:15:29 61° SW 02:18:43 10° SE night (unlit)
28 Sep - 18:52:24 10° SSW 18:55:16 29° SE 18:58:10 10° ENE daylight
28 Sep - 20:28:35 10° W 20:31:40 38° NNW 20:34:46 10° NE visible
28 Sep - 22:06:36 10° NW 22:08:49 17° N 22:11:02 10° NE visible
28 Sep - 23:43:40 10° NW 23:46:11 20° NNE 23:48:41 10° ENE night (unlit)
29 Sep - 01:19:48 10° NW 01:23:05 72° NNE 01:26:21 10° ESE night (unlit)
29 Sep - 02:57:23 10° W 02:59:10 14° SW 03:00:57 10° SSW night (unlit)
29 Sep - 18:00:59 10° S 18:03:03 16° SE 18:05:06 10° E daylight
29 Sep - 19:35:56 10° WSW 19:39:11 63° NNW 19:42:27 10° NE visible
29 Sep - 21:13:41 10° WNW 21:16:08 19° NNW 21:18:34 10° NE visible
29 Sep - 22:51:14 10° NW 22:53:30 17° N 22:55:46 10° NE night (unlit)
